星链-34426 (STARLINK-34426)

导读 | 豆包AI

STARLINK-34426是由美国发射的星链卫星,于2025年6月13日成功入轨。它隶属于SpaceX星链互联网星座,承担全球卫星互联网服务任务,旨在为偏远地区、地面网络覆盖不足区域提供低时延宽带网络,入轨后将完成在轨测试,随后正式投入服务,进一步拓展全球天基通信网络覆盖范围。

基本信息
目录编号:
64345
目录名称:
STARLINK-34426
国际标识:
2025-126B
轨道中心:
EARTH
卫星名称:
星链-34426
卫星全名:
星链-34426 (STARLINK-34426)
卫星状态:
在轨 (已飞行320 天)
发射日期:
2025-06-13 UTC
国别 :
美国 (US)
星等 :
--
轨道信息
数据来源 国际轨道数据
星历时间: 2026-04-29T03:44:36+0800
18小时前
查看轨道信息
半长轴: 6950.14km
偏心率: 0.0002778
轨道倾角: 70.001°
近地点辐角 269.141°
升交点赤经 267.957°
平近点角 90.943°
近地点: 570.072km
远地点: 573.934km
周期: 96.106分钟
每日圈数: 14.983472
详细信息
固有亮度:
5
最大亮度:
2.5
卫星平台:
Starlink V1.0
覆盖范围:
全球
运营商:
太空探索技术公司
运营商所在国:
美国
制造商(研发单位):
太空探索技术公司
制造商所在国:
美国
使用方式:
暂无
卫星简介
Starlink 计划是 SpaceX 推出的全球卫星互联网项目,通过发射低轨道卫星,为全球尤其是偏远地区提供高速、低延迟的互联网服务。自 2019 年起,Starlink 已部署数千颗卫星,旨在缩小全球数字鸿沟,推动互联网普及。该项目还为军事、航空等行业提供通信支持,带来广泛经济效益。
2D轨道图
3D轨道图
轨道高度分析图
轨道倾角分析图
轨道综合分析图
查看轨道综合分析图